Home > Weather > Tamworth > Past weeks

Flag for Australia Past Weather in Tamworth, New South Wales, Australia — Yesterday and Last 2 Weeks

Now
61 °F

Sunny.


Feels Like: 61 °F
Forecast: 33 / 68 °F
Wind: 7 mph from West

Location: Tamworth Airport

Current Time: Aug 28, 2016 at 3:13:34 PM

Latest Report: Aug 28, 2016 at 2:00 PM


Visibility: N/A

Pressure: 30.18 "Hg

Humidity: 42%

Dew Point: 37 °F

Location of TamworthLocation

Past Weather in Tamworth — Graph

°F

Tamworth Temperature Yesterday

Maximum temperature yesterday: 61 °F (at 3:00 PM)
Minimum temperature yesterday: 32 °F (at 5:30 AM)
Average temperature yesterday: 46 °F

High & Low Weather Summary for the Past Weeks

 TemperatureHumidityPressure
High68 °F (Aug 15, 2:00 PM)94% (Aug 22, 3:00 PM)30.48 "Hg (Aug 22, 3:00 PM)
Low30 °F (Aug 14, 5:30 AM)23% (Aug 15, 3:30 PM)29.71 "Hg (Aug 24, 3:00 PM)
Average50 °F71%30.13 "Hg
* Reported Aug 13 2:00 PM — Aug 28 2:00 PM, Tamworth, Weather by CustomWeather, © 2016

Note: Actual official high and low records may vary slightly from our data, if they occured in-between our weather recording intervals... More about our weather records

Advertising

Tamworth Weather History for the Previous 24 Hours

Scroll right to see more
 ConditionsComfort  
Time TempWeatherWind HumidityBarometerVisibility
2:00 PM
Sun, Aug 28
61 °FSunny.7 mph42%30.18 "HgN/A
1:00 PM59 °FSunny.8 mph48%30.21 "HgN/A
12:00 PM59 °FSunny.7 mph55%30.24 "HgN/A
11:30 AM57 °FSunny.5 mph59%30.24 "HgN/A
11:00 AM55 °FSunny.6 mph59%30.27 "HgN/A
10:00 AM52 °FSunny.3 mph67%30.27 "HgN/A
9:00 AM48 °FSunny.3 mph76%30.27 "HgN/A
8:30 AM46 °FSunny.3 mph82%30.27 "HgN/A
8:00 AM43 °FScattered clouds.No wind93%30.27 "HgN/A
7:00 AM34 °FSunny.3 mph87%30.27 "Hg2 mi
6:00 AM30 °FChilly.3 mph93%30.24 "Hg1 mi
5:00 AM30 °FClear.3 mph93%30.24 "Hg1 mi
4:00 AM36 °FPassing clouds.No wind87%30.21 "Hg2 mi
3:30 AM34 °FChilly.No wind93%30.21 "Hg1 mi
3:00 AM36 °FClear.No wind93%30.21 "Hg2 mi
2:00 AM36 °FClear.2 mph87%30.21 "Hg4 mi
1:00 AM37 °FClear.5 mph87%30.21 "Hg6 mi
12:00 AM37 °FClear.No wind87%30.24 "HgN/A
11:00 PM
Sat, Aug 27
39 °FClear.No wind93%30.21 "HgN/A
10:00 PM41 °FClear.No wind81%30.21 "HgN/A
9:00 PM43 °FClear.1 mph87%30.21 "HgN/A
8:00 PM46 °FClear.6 mph82%30.18 "HgN/A
7:00 PM50 °FClear.5 mph71%30.18 "HgN/A
6:00 PM52 °FClear.6 mph67%30.18 "HgN/A
5:00 PM59 °FClear.7 mph51%30.15 "HgN/A
4:00 PM61 °FSunny.7 mph48%30.12 "HgN/A
3:30 PM59 °FScattered clouds.3 mph48%30.12 "HgN/A
3:00 PM61 °FScattered clouds.2 mph52%30.15 "HgN/A
Weather by CustomWeather, © 2016

See weather overviewHow to use our weather pages